Flag for Brazil Weather past 2 weeks in Florianópolis, Santa Catarina, Brazil

Now
70 °F

Light rain. Broken clouds.


Feels Like: 70 °F
Forecast: 68 / 78 °F
Wind: 2 mph from Northeast

Location: Florianopolis Aeroporto


UV Index: 5 (Moderate)

Visibility: 5 mi


Pressure: 30.04 "Hg

Humidity: 88%

Dew point: 66 °F

Location of FlorianópolisLocation

Historic Weather in Florianópolis

°F

Florianópolis temperature yesterday

Maximum temperature yesterday: 75 °F (at 1:00 PM)
Minimum temperature yesterday: 64 °F (at 6:00 AM)
Average temperature yesterday: 70 °F

Past Weeks' High & Low Weather Summary

 TemperatureHumidityPressure
High84 °F (Apr 6, 2:00 PM)100% (Apr 6, 9:00 AM)30.18 "Hg (Apr 6, 9:00 AM)
Low59 °F (Apr 6, 9:00 AM)47% (Apr 14, 12:00 PM)29.74 "Hg (Apr 9, 3:00 PM)
Average73 °F76%30.01 "Hg
* Reported Apr 2 12:00 Noon — Apr 17 12:00 Noon, Florianópolis, Weather by CustomWeather, © 2014

Note: Actual official high and low records may vary slightly from our data, if they occured in-between our weather recording intervals... More about our weather records

Advertising

Historic Weather Conditions — Data for Previous 24 hours

 ConditionsComfort  
Time TempWeatherWind HumidityBarometerVisibility
12:00 PM
Apr 17
70 °FLight rain. Partly sunny.5 mph88%30.07 "HgN/A
11:00 AM70 °FLight rain. Partly sunny.3 mph88%30.07 "Hg2 mi
10:00 AM68 °FFog.1 mph94%30.09 "Hg2 mi
9:00 AM68 °FLight rain. Partly sunny.2 mph88%30.07 "Hg1 mi
8:00 AM68 °FLight rain. Partly sunny.3 mph88%30.04 "Hg1 mi
7:00 AM68 °FBroken clouds.2 mph88%30.04 "HgN/A
6:00 AM68 °FScattered clouds.3 mph88%30.01 "HgN/A
5:00 AM68 °FPassing clouds.No wind88%30.01 "HgN/A
4:00 AM66 °FPassing clouds.No wind94%30.01 "HgN/A
3:00 AM66 °FPassing clouds.No wind94%30.04 "HgN/A
2:00 AM68 °FPassing clouds.No wind94%30.04 "HgN/A
1:00 AM68 °FPassing clouds.No wind94%30.04 "HgN/A
12:00 AM68 °FPassing clouds.No wind88%30.07 "HgN/A
11:00 PM
Apr 16
68 °FPassing clouds.No wind94%30.07 "HgN/A
10:00 PM68 °FPassing clouds.No wind88%30.07 "HgN/A
9:00 PM68 °FPassing clouds.1 mph88%30.07 "HgN/A
8:00 PM68 °FPassing clouds.No wind88%30.07 "HgN/A
7:00 PM72 °FPassing clouds.1 mph83%30.07 "HgN/A
6:00 PM73 °FPassing clouds.2 mph74%30.04 "HgN/A
5:00 PM73 °FPassing clouds.2 mph74%30.04 "HgN/A
4:00 PM73 °FLight rain. Broken clouds.6 mph78%30.04 "HgN/A
3:00 PM75 °FPartly sunny.5 mph69%30.04 "HgN/A
2:00 PM75 °FPartly sunny.3 mph69%30.04 "HgN/A
1:00 PM75 °FScattered clouds.No wind69%30.07 "HgN/A
Weather by CustomWeather, © 2014

See weather overview